Tracking 28096 objects as of 29-Sep-2023
HD Live streaming from Space Station
objects crossing your sky now

STARLINK-6316

Track STARLINK-6316 now!
10-day predictions
STARLINK-6316 is classified as:


NORAD ID: 57335
Int'l Code: 2023-099H
Perigee: 565.3 km
Apogee: 567.1 km
Inclination: 43.0 °
Period: 95.8 minutes
Semi major axis: 6937 km
RCS: Unknown
Launch date: July 16, 2023
Source: United States (US)
Launch site: AIR FORCE EASTERN TEST RANGE (AFETR)
Your satellite tracking list
Your tracking list is empty




NASA's NSSDC Master Catalog

Two Line Element Set (TLE):
1 57335U 23099H   23271.81975492  .00001311  00000-0  11211-3 0  9991
2 57335  43.0035  60.7591 0001233 273.6974  86.3728 15.02540681 11801
Source of the keplerian elements: AFSPC